Theta_e
352 353 351 351 351 351 349 349 349 347 346 343 346 348 346 346 347 346 349 349 349 349 348 347 348 348 346 345 345 346 349 349 349 349 350 350 350 348 343 350 349 349 350
351 353 350 350 350 351 351 349 348 348 349 346 344 346 345 347 349 347 348 347 346 345 344 347 345 340 341 342 345 346 347 345 348 349 350 350 352 350 349 344 350 349 350
350 352 353 350 351 352 351 350 350 350 350 349 347 345 346 347 348 347 346 345 344 347 343 341 340 340 340 342 343 343 347 345 346 348 349 347 350 351 351 350 342 349 350
350 352 352 350 350 352 351 350 350 350 350 348 348 348 347 347 343 346 344 344 342 345 346 344 342 341 341 342 341 345 347 347 347 340 343 347 349 351 351 351 349 339 338
351 351 352 348 351 352 352 350 351 351 350 349 349 350 349 350 352 350 351 350 347 347 350 348 347 349 343 341 342 341 342 344 349 343 344 347 350 349 350 349 349 347 345
352 350 352 348 353 353 351 350 350 351 351 351 351 351 350 349 351 352 351 350 349 349 347 345 345 348 347 345 342 345 343 342 346 347 343 344 346 344 351 349 350 349 345
351 349 351 349 351 352 350 349 350 350 350 351 352 352 351 351 349 351 351 351 350 349 350 350 351 352 349 347 344 343 345 344 351 350 343 336 343 343 351 349 348 348 345
349 349 349 350 350 351 351 350 350 351 351 352 352 352 351 351 352 351 351 352 352 351 351 350 350 352 348 350 346 346 344 344 349 350 347 344 335 341 348 350 348 347 346
348 349 349 349 351 351 350 350 351 350 351 351 351 351 351 351 352 352 351 351 351 351 352 351 352 351 350 350 345 348 347 348 350 349 347 345 339 338 343 348 347 348 346
347 348 349 349 348 348 347 350 350 351 351 352 352 351 352 352 352 351 350 348 350 351 352 352 351 350 348 351 346 346 345 343 348 348 348 348 343 340 339 344 348 347 345
348 348 349 350 354 350 349 349 350 352 352 352 351 351 352 350 348 348 350 349 348 350 351 350 350 352 349 348 350 350 349 348 347 347 346 345 343 344 342 338 342 344 348
348 350 350 349 351 352 350 350 351 351 350 350 351 352 351 348 349 349 349 347 351 350 352 351 351 347 346 344 344 345 346 348 348 346 345 343 342 345 344 338 339 339 340
347 349 351 351 350 349 350 350 351 351 351 352 353 352 350 349 351 349 349 348 349 349 348 348 349 347 348 345 347 345 347 349 348 347 346 342 344 344 344 343 342 341 339
347 349 349 350 351 350 350 351 350 351 351 350 350 351 350 349 351 350 349 349 350 349 351 351 351 345 350 347 347 348 351 351 349 347 345 342 345 345 344 344 344 342 340
346 347 348 350 351 351 351 351 351 350 350 349 349 350 350 350 350 350 350 350 351 352 352 352 352 351 350 347 348 350 350 350 351 349 349 348 346 346 346 345 346 346 343
347 346 347 349 350 350 350 350 349 348 348 349 349 349 350 349 349 348 349 350 351 352 353 353 354 353 352 351 351 350 350 349 348 350 350 350 348 347 346 347 346 346 346
348 349 349 350 349 349 348 348 348 347 346 347 349 349 348 346 345 345 349 350 351 352 353 354 354 354 354 352 351 351 351 351 349 350 351 351 350 350 348 346 344 344 346
350 351 351 350 350 349 348 346 346 346 346 347 348 350 347 343 341 346 348 350 351 352 353 354 354 351 353 353 353 352 352 352 352 351 350 347 349 350 351 347 345 344 345
351 351 351 350 350 350 343 344 345 344 346 347 350 350 351 348 349 348 350 350 350 350 351 353 352 349 351 351 350 350 349 352 353 352 350 350 351 350 350 351 348 346 345
350 350 351 350 350 349 346 343 345 345 345 346 349 351 351 351 348 350 352 352 352 352 350 351 352 352 353 352 352 350 352 353 352 352 352 351 351 350 350 351 352 351 348
346 349 350 350 348 349 348 346 346 347 348 348 349 350 350 351 352 352 352 352 353 352 352 351 350 352 351 352 350 349 349 351 351 351 352 352 351 349 350 349 350 351 351
343 344 348 347 349 349 349 349 349 350 350 350 350 349 347 347 347 350 350 352 352 352 352 352 351 349 350 350 349 349 351 345 345 349 349 350 350 350 350 348 348 345 349
343 344 344 343 343 346 347 350 350 350 350 350 350 350 349 347 347 348 348 348 350 351 351 352 352 351 350 350 352 349 350 351 346 346 348 349 350 350 349 349 348 346 345
343 344 344 342 343 345 347 349 349 350 350 351 351 351 349 346 346 348 347 347 348 351 350 351 352 351 351 350 349 351 350 348 351 352 346 347 347 349 348 348 348 348 347
343 344 344 342 342 342 345 346 350 350 350 351 351 351 349 348 346 346 345 344 346 351 350 351 349 350 349 349 349 350 351 350 350 350 352 348 346 348 347 346 346 347 348
344 344 344 343 342 342 343 344 346 348 349 350 351 349 350 350 348 347 347 346 346 347 347 348 349 351 351 350 351 351 351 351 351 350 352 351 349 348 348 348 347 347 347
Wind_Speed
19 21 23 23 22 21 22 20 19 18 18 19 18 16 16 13 11 11 10 10 9 10 11 11 11 11 10 11 10 7 5 5 6 8 10 10 11 12 13 14 14 14 14
25 22 24 23 23 21 20 21 21 20 18 18 17 17 16 13 9 7 7 6 6 7 8 8 10 10 8 8 8 6 5 4 4 5 8 9 11 11 12 13 14 12 13
26 23 24 23 22 20 20 19 19 18 17 16 16 15 13 11 9 6 5 3 3 4 4 5 6 7 7 6 5 5 5 5 6 7 8 8 8 10 11 12 12 12 12
26 25 24 24 22 20 20 20 19 18 17 15 15 13 11 10 8 6 4 3 1 1 2 2 2 2 3 4 4 5 5 5 6 7 7 8 8 8 10 10 11 11 11
25 24 24 26 24 20 19 19 18 17 16 14 12 11 9 8 7 6 6 5 3 1 2 2 1 2 2 1 2 2 3 4 4 6 7 6 6 4 5 7 9 10 11
23 23 23 25 22 20 18 18 17 17 16 13 12 11 10 8 7 6 5 5 5 4 3 4 4 4 5 4 3 3 2 3 3 4 5 5 3 3 5 6 7 8 9
22 21 21 23 22 20 19 18 17 15 14 12 12 10 9 8 7 7 7 6 6 5 5 5 6 6 6 6 4 4 3 3 3 3 4 3 4 4 6 6 6 6 8
21 20 20 21 22 21 19 18 16 14 13 12 11 10 9 9 8 8 8 8 7 7 7 8 7 7 7 7 6 5 4 3 4 6 6 7 7 7 8 7 7 7 7
20 20 19 18 18 18 18 17 16 15 14 13 12 11 10 9 9 9 9 9 10 9 10 9 9 8 8 7 7 7 6 4 5 6 6 7 9 10 9 9 9 9 8
18 19 18 17 17 16 16 17 16 15 14 13 12 12 11 10 10 10 11 10 12 12 11 10 9 8 9 7 8 9 8 8 7 7 7 8 12 14 14 13 13 13 12
16 17 18 18 18 18 17 16 16 15 14 13 13 13 12 10 10 10 11 12 11 11 10 9 10 9 9 9 9 9 9 9 9 10 10 12 11 14 16 18 15 14 14
20 19 18 19 19 17 16 15 15 15 14 14 14 13 12 12 11 10 11 11 9 10 10 9 11 11 9 9 8 9 9 9 11 12 12 15 13 13 14 18 17 16 15
21 19 21 20 19 18 17 15 15 15 14 14 15 14 13 12 11 10 9 8 7 9 8 8 9 9 8 9 9 10 10 11 12 12 13 14 12 12 12 14 18 21 21
22 21 20 21 21 21 18 17 16 15 15 14 14 14 14 13 12 11 10 9 8 8 9 10 10 10 9 9 8 10 10 11 10 11 12 14 14 12 13 16 17 15 18
20 21 21 20 21 20 19 17 16 16 16 15 15 15 15 14 13 11 11 10 10 9 10 11 12 12 12 10 10 9 11 12 11 11 11 14 15 14 16 18 18 17 17
18 21 20 21 21 20 20 20 19 18 18 17 16 16 17 16 14 13 13 13 12 11 11 12 12 12 13 12 11 11 11 10 11 13 13 13 17 18 18 20 20 20 20
22 18 21 20 21 23 24 23 21 19 18 18 17 17 19 18 18 17 14 14 14 13 14 13 13 13 13 13 16 13 13 13 13 12 14 15 15 18 19 19 19 19 21
20 22 21 21 21 23 24 24 22 21 19 18 17 16 19 20 21 17 16 16 16 14 13 14 15 16 14 14 15 15 14 13 14 16 16 14 14 14 16 18 20 20 20
22 22 23 23 24 24 27 25 24 23 21 20 18 18 19 20 20 20 17 17 18 16 16 15 16 16 18 18 18 18 17 15 16 16 19 19 19 17 15 16 19 22 23
23 23 24 25 27 27 24 23 20 20 21 21 21 21 21 21 23 22 20 21 19 17 17 17 16 16 17 18 17 19 17 16 16 18 20 21 20 20 19 17 16 17 25
24 24 24 24 31 26 22 20 21 22 22 22 22 23 24 23 20 20 20 20 19 19 20 20 19 19 19 18 18 21 20 21 23 22 19 19 20 21 19 19 19 18 19
29 28 26 31 28 29 24 24 20 16 19 21 19 22 29 30 29 26 25 21 21 21 22 23 20 21 20 18 15 15 10 17 20 21 22 21 22 19 20 24 23 24 21
26 26 29 34 33 31 31 21 17 18 16 17 22 24 27 31 32 34 32 29 27 27 24 22 21 20 23 22 19 14 7 8 11 15 15 17 19 19 21 22 25 29 28
26 23 25 32 32 30 28 26 28 25 24 28 26 23 26 27 29 33 37 37 33 24 25 21 20 21 21 24 22 21 25 22 9 11 17 15 18 19 22 22 23 27 30
21 23 24 27 29 31 29 31 26 26 27 26 23 22 23 25 28 27 30 33 34 25 23 24 25 25 25 26 27 25 19 19 20 14 13 16 21 21 23 25 27 25 24
17 20 20 26 31 26 28 32 35 33 29 26 23 24 22 21 24 27 28 29 28 30 32 27 30 29 29 27 28 28 27 18 14 12 10 18 18 24 24 23 24 27 27
Wind_Direction
159 156 150 145 142 144 146 147 143 145 148 148 138 140 133 133 126 120 117 113 107 101 96 99 105 114 116 119 121 115 99 103 127 131 130 120 114 102 104 112 96 101 101
152 156 151 150 145 148 146 148 145 146 152 152 149 148 145 142 135 130 121 117 109 109 106 106 110 115 120 128 133 125 120 124 134 137 141 130 120 114 113 121 108 111 109
150 155 155 154 151 151 150 150 147 150 152 154 154 155 152 155 156 164 153 146 118 101 102 109 114 123 128 128 128 127 125 126 128 147 154 141 132 130 124 120 125 118 112
147 158 159 157 157 158 154 154 157 157 158 157 157 162 163 168 176 183 185 185 220 86 78 97 102 110 132 153 161 152 135 132 146 145 148 143 141 129 130 131 127 126 131
151 160 164 162 164 163 159 157 160 163 162 162 164 169 169 177 182 193 192 187 211 206 340 343 339 339 317 283 241 212 172 142 151 138 151 154 147 182 144 139 132 133 124
155 161 166 169 167 166 164 161 165 166 166 169 175 177 175 183 188 187 193 208 204 220 243 267 284 298 298 290 276 271 237 207 167 178 164 176 180 196 181 163 150 150 146
157 158 165 171 169 170 172 171 175 176 177 180 186 193 201 213 216 216 220 220 230 242 241 254 275 285 287 295 289 274 272 255 234 245 228 230 213 194 168 177 174 169 164
158 159 169 176 174 176 179 181 184 187 189 189 199 212 223 227 232 228 235 240 239 249 260 266 265 270 269 277 278 277 265 255 251 244 252 261 242 216 198 203 196 198 188
164 165 173 180 181 182 187 191 194 196 201 205 215 222 230 235 237 242 250 256 264 266 265 267 272 268 268 267 269 269 265 250 238 248 247 247 247 227 222 214 211 213 218
171 175 178 183 188 192 199 201 204 208 213 220 225 232 237 243 246 252 257 266 265 269 272 271 267 262 264 258 268 266 274 277 266 258 256 254 255 245 240 231 223 221 219
179 185 189 191 193 198 200 209 214 217 220 226 232 238 244 248 252 255 258 258 270 265 266 266 267 263 262 261 257 259 260 259 260 259 258 260 262 249 248 232 229 232 231
187 192 197 200 204 204 207 211 215 219 222 227 231 235 240 247 249 246 257 261 264 265 264 259 252 257 259 258 253 255 248 254 260 259 257 263 261 255 247 236 225 232 236
192 196 200 202 205 206 209 214 218 222 225 231 233 235 241 247 250 251 251 258 255 265 261 264 264 252 257 252 255 260 259 261 262 262 258 260 249 253 249 245 245 244 237
198 203 204 205 208 211 214 218 221 223 226 229 234 237 242 248 249 249 249 252 258 257 264 270 268 269 263 271 266 266 264 264 261 259 254 254 249 256 240 239 241 240 237
205 208 210 210 212 213 217 222 224 226 231 235 237 237 236 242 246 247 252 255 258 262 268 270 275 279 280 277 269 266 269 265 259 254 256 261 257 251 250 248 250 244 241
211 212 211 215 216 217 220 224 226 229 232 235 237 239 240 241 244 245 254 259 261 264 267 275 276 278 284 283 280 272 269 272 266 258 262 267 270 266 259 253 250 248 245
216 215 216 217 217 220 224 229 230 231 233 234 237 238 238 238 243 242 252 258 261 269 277 275 277 277 275 279 286 285 279 273 270 272 267 269 276 282 267 251 251 248 244
221 220 218 219 220 223 224 227 229 231 231 234 234 236 238 238 242 245 246 252 258 265 272 279 279 275 274 276 279 286 285 279 272 270 270 269 269 274 277 259 250 254 250
228 225 222 221 222 224 228 225 228 230 232 234 235 237 243 245 245 247 248 252 255 257 261 265 277 274 271 277 286 285 283 279 275 273 274 272 267 266 266 263 256 253 255
232 230 229 226 227 229 229 231 235 236 237 239 240 240 240 242 246 248 250 251 251 253 257 260 266 269 269 277 279 280 277 270 270 268 269 272 266 258 254 254 254 255 252
236 233 228 227 233 225 222 225 232 237 239 241 242 246 248 250 254 252 253 254 250 247 248 251 258 264 264 269 278 282 277 276 269 263 261 263 267 259 251 250 250 248 251
233 230 229 234 231 230 224 226 229 236 244 247 250 250 252 251 250 251 251 243 241 242 247 251 247 250 261 264 255 280 283 279 260 263 260 256 257 256 251 251 249 250 246
234 229 229 238 236 235 230 223 230 235 244 247 245 246 247 250 251 249 249 250 246 247 246 245 244 242 255 257 248 229 265 251 281 264 252 252 254 253 255 254 253 254 254
233 231 233 239 240 239 231 221 220 224 233 240 243 246 249 252 251 248 249 252 251 245 247 248 253 247 249 261 259 247 242 259 277 286 273 265 259 253 256 256 254 255 254
231 226 231 236 240 239 232 229 231 238 243 251 249 249 255 256 258 253 252 254 251 253 258 264 258 254 255 256 260 259 252 250 250 252 275 267 266 264 261 256 257 258 255
231 225 226 232 242 241 240 243 237 236 239 246 246 245 245 247 254 249 246 244 245 248 251 249 274 273 261 255 256 255 252 247 235 233 254 268 269 273 271 265 258 255 255